This is the latest recevied weather packets stored in our database for station/object OE-11152. If no packets are shown the sender has not sent any weather packets the latest 10 day(s).
| Time | Temp. | Humidity | Pressure | Rain* | Wind** | Luminosity | Snow |
|---|---|---|---|---|---|---|---|
| 1787607318 | 19.44° C | 59% | 1012.6 hPa | 0 mm | - | 0 W/m² | - |
| 1787606717 | 19.44° C | 57% | 1012.8 hPa | 0 mm | - | 0 W/m² | - |
| 1787605891 | 19.44° C | 58% | 1013.1 hPa | 0 mm | - | 0 W/m² | - |
| 1787605518 | 20° C | 59% | 1013.1 hPa | 0 mm | - | 0 W/m² | - |
| 1787604918 | 20° C | 58% | 1013.1 hPa | 0 mm | - | 0 W/m² | - |
| 1787604091 | 20.56° C | 57% | 1013 hPa | 0 mm | - | 0 W/m² | - |
| 1787603718 | 20.56° C | 55% | 1013 hPa | 0 mm | - | 0 W/m² | - |
| 1787603118 | 20.56° C | 58% | 1013.1 hPa | 0 mm | - | 0 W/m² | - |
| 1787602530 | 20.56° C | 57% | 1013 hPa | 0 mm | - | 0 W/m² | - |
| 1787601918 | 21.11° C | 59% | 1013.1 hPa | 0 mm | - | 0 W/m² | - |
| 1787601318 | 21.11° C | 56% | 1013.5 hPa | 0 mm | - | 0 W/m² | - |
| 1787600491 | 21.11° C | 57% | 1013.7 hPa | 0 mm | - | 0 W/m² | - |
| 1787600118 | 20.56° C | 58% | 1013.8 hPa | 0 mm | - | 0 W/m² | - |
| 1787599517 | 20.56° C | 62% | 1013.8 hPa | 0 mm | - | 0 W/m² | - |
| 1787598691 | 20.56° C | 61% | 1013.8 hPa | 0 mm | - | 0 W/m² | - |
| 1787598317 | 20.56° C | 63% | 1013.8 hPa | 0 mm | - | 0 W/m² | - |
| 1787597718 | 20.56° C | 60% | 1013.8 hPa | 0 mm | - | 0 W/m² | - |
| 1787596891 | 20.56° C | 61% | 1013.8 hPa | 0 mm | - | 0 W/m² | - |
| 1787596517 | 21.11° C | 59% | 1013.7 hPa | 0 mm | - | 0 W/m² | - |
| 1787595918 | 21.11° C | 58% | 1013.9 hPa | 0 mm | - | 0 W/m² | - |
| 1787595091 | 21.11° C | 60% | 1013.9 hPa | 0 mm | - | 7 W/m² | - |
| 1787594718 | 21.67° C | 59% | 1014 hPa | 0 mm | - | 13 W/m² | - |
| 1787594117 | 21.67° C | 60% | 1014 hPa | 0 mm | - | 20 W/m² | - |
| 1787593291 | 21.67° C | 57% | 1014 hPa | 0 mm | - | 27 W/m² | - |
| 1787592917 | 22.22° C | 58% | 1013.9 hPa | 0 mm | - | 34 W/m² | - |
* Rain latest hour (hover to see other rain measurements)
** Current wind speed in m/s (hover to see current wind gust speed)